User: anonymous   Login
Location: Muenchen
(48.1800°N, 11.5800°E)
Time: 05:21:14
(UTC+02:00)
Language:

Cosmos 2233 Rocket - Orbit

View from above orbital plane
View from above orbital plane
View from above satellite
View from above satellite

Ground track
Ground track

The orbit data is extracted from the following two-line orbital elements,

1 22488U 93008B   15143.97768481  .00000038  00000-0  22732-4 0  9999
2 22488 082.9425 280.4073 0025521 178.5115 321.0196 13.77664316120271
Epoch (UTC): 23 May 2015 23:27:51
Eccentricity: 0.0025521
inclination: 82.9425°
perigee height: 953 km
apogee height: 991 km
right ascension of ascending node: 280.4073°
argument of perigee: 178.5115°
revolutions per day: 13.77664316
mean anomaly at epoch: 321.0196°
orbit number at epoch: 12027

The dashed part of the orbit path shows where the satellite is in the earth's shadow,  

DLR